SIA913 RPLL-WSSS

Flight info

Callsign SIA913
Flight time N/A
Altitude 36000
Route BUCAL2R BUCAL M646 TOKON M767 TOMAN KARTO2A
Aircraft B77W/H-SDE1E2E3FGHIJ2J3J4J5M1RWXY/LB1D1

Departure

Time N/A
Airport Ninoy Aquino International Airport (RPLL)

Arrival

Time 2026-05-01 10:58
Airport Singapore Changi Airport (WSSS)
Time Latitude Longitude Altitude Speed Heading
2026-05-01 10:03 3.92815 109.15107 37827 ft 483 kts 232°
2026-05-01 10:04 3.88715 109.09717 37827 ft 485 kts 232°
2026-05-01 10:04 3.84625 109.04340 37826 ft 484 kts 232°
2026-05-01 10:05 3.80538 108.98968 37826 ft 485 kts 232°
2026-05-01 10:05 3.76460 108.93610 37826 ft 483 kts 232°
2026-05-01 10:06 3.72373 108.88239 37826 ft 484 kts 232°
2026-05-01 10:06 3.68291 108.82868 37827 ft 484 kts 232°
2026-05-01 10:07 3.64226 108.77507 37827 ft 483 kts 232°
2026-05-01 10:07 3.60173 108.72163 37828 ft 485 kts 233°
2026-05-01 10:08 3.54040 108.64078 37828 ft 484 kts 232°
2026-05-01 10:09 3.49974 108.58721 37831 ft 483 kts 233°
2026-05-01 10:09 3.45918 108.53378 37837 ft 484 kts 233°
2026-05-01 10:10 3.41834 108.47997 37837 ft 485 kts 233°
2026-05-01 10:10 3.35744 108.39977 37846 ft 484 kts 233°
2026-05-01 10:11 3.31644 108.34579 37846 ft 484 kts 233°
2026-05-01 10:11 3.27553 108.29192 37847 ft 484 kts 233°
2026-05-01 10:12 3.24162 108.24728 37848 ft 484 kts 233°
2026-05-01 10:13 3.17353 108.15768 37847 ft 484 kts 233°
2026-05-01 10:13 3.13272 108.10397 37849 ft 487 kts 233°
2026-05-01 10:14 3.07066 108.02232 37847 ft 489 kts 233°
2026-05-01 10:14 3.02939 107.96804 37849 ft 489 kts 233°
2026-05-01 10:15 2.98802 107.91363 37851 ft 491 kts 233°
2026-05-01 10:15 2.94683 107.85946 37855 ft 490 kts 233°
2026-05-01 10:16 2.90524 107.80478 37844 ft 490 kts 233°
2026-05-01 10:17 2.84315 107.72315 37840 ft 492 kts 233°
2026-05-01 10:17 2.78120 107.64172 37829 ft 488 kts 233°
2026-05-01 10:18 2.71939 107.56050 37830 ft 490 kts 233°
2026-05-01 10:19 2.67815 107.50632 37828 ft 491 kts 233°
2026-05-01 10:19 2.63685 107.45207 37828 ft 489 kts 233°
2026-05-01 10:20 2.57485 107.37062 37830 ft 489 kts 233°
2026-05-01 10:20 2.53375 107.31665 37824 ft 489 kts 233°
2026-05-01 10:21 2.47208 107.23566 37824 ft 490 kts 233°
2026-05-01 10:22 2.41007 107.15425 37831 ft 489 kts 232°
2026-05-01 10:23 2.34784 107.07265 37828 ft 490 kts 232°
2026-05-01 10:23 2.28591 106.99181 37828 ft 489 kts 232°
2026-05-01 10:24 2.20322 106.88389 37829 ft 487 kts 232°
2026-05-01 10:25 2.12064 106.77612 37829 ft 488 kts 232°
2026-05-01 10:26 2.07927 106.72214 37835 ft 488 kts 232°
2026-05-01 10:27 1.99660 106.61426 37841 ft 486 kts 232°
2026-05-01 10:28 1.93477 106.53360 37848 ft 487 kts 232°
2026-05-01 10:28 1.89558 106.48248 37692 ft 487 kts 232°
2026-05-01 10:28 1.87510 106.45577 37547 ft 487 kts 232°
2026-05-01 10:29 1.83403 106.40219 37347 ft 484 kts 232°
2026-05-01 10:29 1.81351 106.37543 37202 ft 484 kts 232°
2026-05-01 10:30 1.77260 106.32209 36235 ft 483 kts 232°
2026-05-01 10:30 1.73160 106.26862 34473 ft 485 kts 232°
2026-05-01 10:31 1.69033 106.21481 32857 ft 485 kts 232°
2026-05-01 10:31 1.64952 106.16161 31866 ft 488 kts 232°
2026-05-01 10:32 1.58698 106.08003 31530 ft 485 kts 232°
2026-05-01 10:32 1.54548 106.02593 29612 ft 494 kts 232°
2026-05-01 10:33 1.50457 105.97259 28914 ft 480 kts 233°
2026-05-01 10:33 1.46370 105.91930 28168 ft 484 kts 233°
2026-05-01 10:34 1.44313 105.89248 27773 ft 480 kts 232°
2026-05-01 10:34 1.42316 105.86643 27393 ft 476 kts 232°
2026-05-01 10:34 1.40298 105.84013 27011 ft 473 kts 232°
2026-05-01 10:35 1.36304 105.78805 26245 ft 470 kts 232°
2026-05-01 10:35 1.34330 105.76228 25875 ft 468 kts 232°
2026-05-01 10:35 1.32338 105.73625 25508 ft 467 kts 232°
2026-05-01 10:35 1.30370 105.71053 25138 ft 465 kts 232°
2026-05-01 10:36 1.26479 105.65969 24413 ft 460 kts 232°
2026-05-01 10:36 1.24522 105.63411 24103 ft 457 kts 231°
2026-05-01 10:36 1.22642 105.60908 24077 ft 457 kts 235°
2026-05-01 10:37 1.21028 105.58151 24076 ft 461 kts 244°
2026-05-01 10:37 1.19091 105.52035 24073 ft 461 kts 261°
2026-05-01 10:37 1.18810 105.48850 24074 ft 461 kts 268°
2026-05-01 10:38 1.18718 105.45669 24079 ft 461 kts 269°
2026-05-01 10:38 1.18639 105.42467 24084 ft 460 kts 269°
2026-05-01 10:38 1.18561 105.39286 24091 ft 462 kts 269°
2026-05-01 10:38 1.18480 105.36064 24097 ft 461 kts 269°
2026-05-01 10:39 1.18400 105.32875 24099 ft 461 kts 269°
2026-05-01 10:39 1.18319 105.29663 24098 ft 460 kts 269°
2026-05-01 10:39 1.18238 105.26447 24094 ft 460 kts 269°
2026-05-01 10:39 1.18158 105.23287 23885 ft 463 kts 269°
2026-05-01 10:40 1.18075 105.20055 23401 ft 463 kts 269°
2026-05-01 10:40 1.17993 105.16840 22835 ft 460 kts 269°
2026-05-01 10:40 1.17912 105.13667 22258 ft 457 kts 269°
2026-05-01 10:40 1.17832 105.10535 21704 ft 455 kts 269°
2026-05-01 10:41 1.17760 105.07383 21135 ft 452 kts 269°
2026-05-01 10:41 1.17694 105.04243 20556 ft 450 kts 269°
2026-05-01 10:41 1.17565 104.98074 19401 ft 446 kts 269°
2026-05-01 10:42 1.17500 104.94975 18822 ft 443 kts 269°
2026-05-01 10:42 1.17434 104.91904 18239 ft 441 kts 269°
2026-05-01 10:42 1.17370 104.88847 17661 ft 438 kts 269°
2026-05-01 10:42 1.17306 104.85835 17083 ft 436 kts 269°
2026-05-01 10:43 1.17241 104.82811 16498 ft 433 kts 269°
2026-05-01 10:43 1.17178 104.79846 15922 ft 431 kts 269°
2026-05-01 10:43 1.17104 104.76844 15336 ft 428 kts 269°
2026-05-01 10:43 1.17029 104.73907 14755 ft 425 kts 269°
2026-05-01 10:44 1.16953 104.70935 14168 ft 423 kts 269°
2026-05-01 10:44 1.16880 104.68039 13587 ft 420 kts 269°
2026-05-01 10:44 1.16806 104.65135 13002 ft 417 kts 269°
2026-05-01 10:44 1.16732 104.62217 12462 ft 412 kts 269°
2026-05-01 10:45 1.16661 104.59393 11995 ft 406 kts 269°
2026-05-01 10:45 1.16590 104.56598 11513 ft 401 kts 269°
2026-05-01 10:45 1.16520 104.53827 10981 ft 397 kts 269°
2026-05-01 10:45 1.16451 104.51103 10715 ft 385 kts 269°
2026-05-01 10:46 1.16384 104.48468 10619 ft 369 kts 269°
2026-05-01 10:46 1.16321 104.45954 10500 ft 355 kts 268°
2026-05-01 10:46 1.16260 104.43533 10359 ft 344 kts 268°
2026-05-01 10:46 1.16200 104.41180 10222 ft 333 kts 268°
2026-05-01 10:47 1.16135 104.38910 10058 ft 324 kts 266°
2026-05-01 10:47 1.15952 104.36697 9710 ft 321 kts 264°
2026-05-01 10:47 1.15742 104.34497 9680 ft 307 kts 264°
2026-05-01 10:47 1.15556 104.32434 9641 ft 294 kts 264°
2026-05-01 10:48 1.15380 104.30408 9380 ft 291 kts 264°
2026-05-01 10:48 1.15209 104.28387 9023 ft 291 kts 264°
2026-05-01 10:48 1.15040 104.26376 8698 ft 291 kts 265°
2026-05-01 10:48 1.14872 104.24369 8403 ft 288 kts 265°
2026-05-01 10:49 1.14705 104.22379 8132 ft 285 kts 265°
2026-05-01 10:49 1.14547 104.20418 7905 ft 280 kts 265°
2026-05-01 10:49 1.14413 104.18508 7892 ft 264 kts 266°
2026-05-01 10:49 1.14288 104.16730 7880 ft 249 kts 265°
2026-05-01 10:50 1.14169 104.15056 7800 ft 237 kts 265°
2026-05-01 10:50 1.14055 104.13458 7649 ft 228 kts 265°
2026-05-01 10:50 1.13942 104.11890 7385 ft 226 kts 265°
2026-05-01 10:50 1.13829 104.10326 7064 ft 226 kts 265°
2026-05-01 10:51 1.13717 104.08766 6802 ft 223 kts 265°
2026-05-01 10:51 1.13606 104.07220 6472 ft 223 kts 266°
2026-05-01 10:51 1.13495 104.05682 6181 ft 221 kts 266°
2026-05-01 10:51 1.13384 104.04135 5871 ft 220 kts 266°
2026-05-01 10:52 1.13275 104.02611 5558 ft 220 kts 266°
2026-05-01 10:52 1.13165 104.01089 5247 ft 219 kts 266°
2026-05-01 10:52 1.13335 103.99598 4883 ft 218 kts 296°
2026-05-01 10:52 1.14242 103.98437 4641 ft 206 kts 322°
2026-05-01 10:53 1.15337 103.97604 4573 ft 190 kts 327°
2026-05-01 10:53 1.16415 103.96856 4292 ft 187 kts 328°
2026-05-01 10:53 1.17489 103.96126 3986 ft 186 kts 328°
2026-05-01 10:53 1.18552 103.95402 3674 ft 184 kts 328°
2026-05-01 10:54 1.19609 103.94682 3184 ft 185 kts 328°
2026-05-01 10:54 1.20694 103.94016 2786 ft 181 kts 340°
2026-05-01 10:54 1.21910 103.93857 2432 ft 176 kts 16°
2026-05-01 10:54 1.23008 103.94351 2161 ft 175 kts 28°
2026-05-01 10:55 1.24136 103.94862 1890 ft 174 kts 24°
2026-05-01 10:55 1.25255 103.95316 1655 ft 174 kts 25°
2026-05-01 10:55 1.26356 103.95776 1422 ft 165 kts 25°
2026-05-01 10:55 1.27382 103.96205 1204 ft 154 kts 24°
2026-05-01 10:56 1.28357 103.96613 1005 ft 149 kts 24°
2026-05-01 10:56 1.29324 103.97019 805 ft 148 kts 23°
2026-05-01 10:56 1.30275 103.97413 590 ft 147 kts 23°
2026-05-01 10:56 1.31222 103.97816 383 ft 144 kts 22°
2026-05-01 10:57 1.32154 103.98193 210 ft 143 kts 22°
2026-05-01 10:57 1.33078 103.98583 41 ft 143 kts 22°
2026-05-01 10:57 1.33898 103.98930 35 ft 108 kts 23°
2026-05-01 10:57 1.34455 103.99165 34 ft 64 kts 23°
2026-05-01 10:58 1.34780 103.99303 35 ft 45 kts 23°
2026-05-01 10:58 1.35067 103.99425 35 ft 44 kts 23°
2026-05-01 10:58 1.35345 103.99541 35 ft 42 kts 22°
2026-05-01 10:58 1.35605 103.99651 35 ft 32 kts 25°
2026-05-01 10:59 1.35726 103.99680 34 ft 16 kts
2026-05-01 10:59 1.35844 103.99674 35 ft 16 kts 353°
2026-05-01 10:59 1.35902 103.99641 35 ft 6 kts 303°
2026-05-01 10:59 1.35917 103.99596 34 ft 7 kts 285°
2026-05-01 11:00 1.35935 103.99543 35 ft 9 kts 292°
2026-05-01 11:00 1.35963 103.99477 35 ft 12 kts 293°
2026-05-01 11:00 1.35997 103.99399 35 ft 12 kts 293°
2026-05-01 11:00 1.36050 103.99349 35 ft 11 kts
2026-05-01 11:01 1.36124 103.99372 35 ft 11 kts 22°
2026-05-01 11:01 1.36193 103.99402 35 ft 9 kts 24°
2026-05-01 11:01 1.36251 103.99427 35 ft 9 kts 28°
2026-05-01 11:01 1.36297 103.99469 34 ft 9 kts 49°
2026-05-01 11:02 1.36337 103.99519 35 ft 9 kts 53°
2026-05-01 11:02 1.36375 103.99568 35 ft 9 kts 51°
2026-05-01 11:02 1.36423 103.99583 35 ft 5 kts 321°
2026-05-01 11:02 1.36434 103.99560 35 ft 3 kts 291°
2026-05-01 11:03 1.36445 103.99532 35 ft 4 kts 291°
2026-05-01 11:03 1.36450 103.99521 35 ft 0 kts 292°